Home > Weather > Brønnøysund > Past weeks

Flag for Norway Past Weather in Brønnøysund, Norway — Yesterday and Last 2 Weeks

Now
50 °F

Overcast.


Feels Like: 49 °F
Forecast: 52 / 56 °F
Wind: 3 mph from Northeast

Location: Bronnoysund / Bronnoy

Current Time: Aug 26, 2016 at 5:27:34 AM

Latest Report: Aug 26, 2016 at 4:50 AM


Visibility: N/A

Pressure: 30.09 "Hg

Humidity: 94%

Dew Point: 48 °F

Location of BrønnøysundLocation

Past Weather in Brønnøysund — Graph

°F

Brønnøysund Temperature Yesterday

Maximum temperature yesterday: 57 °F (at 10:20 AM)
Minimum temperature yesterday: 52 °F (at 9:20 PM)
Average temperature yesterday: 54 °F

High & Low Weather Summary for the Past Weeks

 TemperatureHumidityPressure
High72 °F (Aug 18, 1:20 PM)100% (Aug 11, 7:20 AM)30.30 "Hg (Aug 11, 7:20 AM)
Low43 °F (Aug 11, 7:20 AM)49% (Aug 18, 7:50 PM)29.53 "Hg (Aug 13, 12:20 AM)
Average55 °F79%29.98 "Hg
* Reported Aug 11 3:20 AM — Aug 26 3:50 AM, Brønnøysund, Weather by CustomWeather, © 2016

Note: Actual official high and low records may vary slightly from our data, if they occured in-between our weather recording intervals... More about our weather records

Advertising

Brønnøysund Weather History for the Previous 24 Hours

Scroll right to see more
 ConditionsComfort  
Time TempWeatherWind HumidityBarometerVisibility
3:50 AM
Fri, Aug 26
50 °FOvercast.6 mph94%30.09 "HgN/A
3:20 AM50 °FOvercast.6 mph94%30.09 "HgN/A
2:50 AM50 °FOvercast.2 mph94%30.09 "HgN/A
2:20 AM50 °FOvercast.3 mph100%30.12 "HgN/A
1:50 AM52 °FOvercast.3 mph94%30.09 "HgN/A
1:20 AM52 °FOvercast.No wind94%30.12 "HgN/A
12:50 AM52 °FOvercast.1 mph88%30.12 "HgN/A
12:20 AM52 °FOvercast.3 mph88%30.09 "HgN/A
11:50 PM
Thu, Aug 25
52 °FMostly cloudy.2 mph88%30.09 "HgN/A
11:20 PM52 °FMostly cloudy.2 mph88%30.09 "HgN/A
10:50 PM52 °FOvercast.3 mph88%30.12 "HgN/A
9:50 PM52 °FPartly sunny.5 mph88%30.12 "HgN/A
9:20 PM52 °FPartly sunny.2 mph82%30.09 "HgN/A
7:50 PM54 °FPartly sunny.3 mph72%30.09 "HgN/A
7:20 PM54 °FPartly sunny.3 mph77%30.09 "HgN/A
6:50 PM54 °FPartly sunny.5 mph77%30.09 "HgN/A
6:20 PM54 °FPartly sunny.8 mph82%30.09 "HgN/A
5:50 PM54 °FPartly sunny.9 mph82%30.09 "HgN/A
4:50 PM54 °FPartly sunny.9 mph82%30.09 "HgN/A
4:20 PM55 °FPartly sunny.10 mph77%30.09 "HgN/A
3:50 PM55 °FBroken clouds.9 mph77%30.09 "HgN/A
3:20 PM54 °FBroken clouds.9 mph82%30.09 "HgN/A
2:50 PM55 °FBroken clouds.9 mph82%30.09 "HgN/A
2:20 PM55 °FBroken clouds.10 mph82%30.07 "HgN/A
1:50 PM55 °FBroken clouds.12 mph88%30.07 "HgN/A
1:20 PM55 °FBroken clouds.13 mph88%30.07 "HgN/A
12:50 PM54 °FLight rain. Broken clouds.13 mph94%30.04 "HgN/A
12:20 PM54 °FDrizzle. Broken clouds.13 mph100%30.04 "Hg3 mi
11:50 AM54 °FDrizzle. Fog.12 mph94%30.04 "Hg1 mi
11:20 AM54 °FLight rain. Broken clouds.12 mph100%30.01 "HgN/A
10:50 AM55 °FLight rain. Broken clouds.8 mph94%30.01 "HgN/A
10:20 AM57 °FPartly sunny.8 mph94%29.98 "HgN/A
9:50 AM55 °FBroken clouds.7 mph100%29.98 "HgN/A
9:20 AM55 °FBroken clouds.7 mph100%29.95 "HgN/A
8:50 AM55 °FPartly sunny.8 mph100%29.95 "HgN/A
8:20 AM55 °FSprinkles. Broken clouds.15 mph94%29.95 "HgN/A
7:50 AM54 °FDrizzle. Broken clouds.16 mph100%29.95 "Hg1 mi
7:20 AM54 °FDrizzle. Broken clouds.12 mph100%29.95 "Hg1 mi
6:50 AM54 °FDrizzle. Broken clouds.14 mph100%29.95 "Hg1 mi
6:20 AM54 °FPassing clouds.14 mph100%29.95 "HgN/A
5:50 AM54 °FSprinkles. Fog.20 mph100%29.95 "Hg3 mi
5:20 AM54 °FSprinkles. Passing clouds.18 mph100%29.95 "HgN/A
Weather by CustomWeather, © 2016

See weather overviewHow to use our weather pages